New Orleans, LA

12:28 AM CST on February 26, 2017 (GMT -0600)
New Orleans International

Weather History for KMSY - July, 2013

Change the Weather History Date:

Wednesday, July 3, 2013

  Actual Average Record
Temperature  
Mean Temperature 80 °F -  
Max Temperature 86 °F 91 °F 98 °F (1969)
Min Temperature 75 °F 73 °F 67 °F (1966)
Cooling Degree Days 16    
Growing Degree Days 30 (Base 50)    
Moisture  
Dew Point 70 °F    
Average Humidity 71    
Maximum Humidity 89    
Minimum Humidity 52    
Precipitation  
Precipitation 0.16 in - - ()
Sea Level Pressure  
Sea Level Pressure 29.98 in    
Wind  
Wind Speed 4 mph (ENE)    
Max Wind Speed 12 mph    
Max Gust Speed 16 mph    
Visibility 10 miles    
Events Rain    
Averages and records for this station are not official NWS values.
T = Trace of Precipitation, MM = Missing Value Source: NWS Daily Summary

Daily Weather History Graph

Daily Weather History Graph

Search for Another Location

Airport or City:

Trip Planner

Search our weather history database for the weather conditions in past years. The results will help you decide how hot, cold, wet, or windy it might be!

Date:

Astronomy

Jul. 03, 2013 Rise Set
Actual Time 6:04 AM CDT 8:06 PM CDT
Civil Twilight 5:37 AM CDT 8:33 PM CDT
Nautical Twilight 5:04 AM CDT 9:06 PM CDT
Astronomical Twilight 4:28 AM CDT 9:41 PM CDT
Moon 2:34 AM CDT (7/3) 4:23 PM CDT (7/3)
Length of Visible Light 14h 56m
Length of Day
14h 01m
Waning Crescent, 18% of the Moon is Illuminated
Jul 3
Waning Crescent
Jul 8
New
Jul 15
First Quarter
Jul 22
Full
Jul 29
Last Quarter

Hourly Weather History & Observations

Time (CDT) Temp. Heat Index Dew Point Humidity Pressure Visibility Wind Dir Wind Speed Gust Speed Precip Events Conditions
12:53 AM 79.0 °F - 68.0 °F 69% 29.99 in 10.0 mi Calm Calm - N/A   Mostly Cloudy
1:53 AM 79.0 °F - 68.0 °F 69% 29.98 in 10.0 mi Calm Calm - N/A   Scattered Clouds
2:53 AM 77.0 °F - 69.1 °F 76% 29.96 in 10.0 mi Calm Calm - N/A   Scattered Clouds
3:53 AM 77.0 °F - 69.1 °F 76% 29.97 in 10.0 mi Calm Calm - N/A   Mostly Cloudy
4:53 AM 77.0 °F - 71.1 °F 82% 29.97 in 10.0 mi NNE 3.5 mph - 0.00 in Rain Light Rain
5:53 AM 77.0 °F - 71.1 °F 82% 29.99 in 8.0 mi East 5.8 mph 16.1 mph 0.00 in Rain Light Rain
6:10 AM 77.0 °F - 71.6 °F 83% 29.98 in 6.0 mi East 5.8 mph - 0.02 in Rain Rain
6:19 AM 75.2 °F - 71.6 °F 89% 29.98 in 10.0 mi East 10.4 mph - 0.03 in Rain Light Rain
6:53 AM 75.9 °F - 72.0 °F 87% 30.00 in 8.0 mi East 8.1 mph - 0.03 in Rain Light Rain
7:53 AM 75.9 °F - 69.1 °F 79% 30.02 in 10.0 mi East 11.5 mph - N/A   Overcast
8:53 AM 78.1 °F - 70.0 °F 76% 30.02 in 10.0 mi ENE 10.4 mph - N/A   Mostly Cloudy
9:53 AM 80.1 °F 83.6 °F 71.1 °F 74% 30.02 in 10.0 mi ESE 11.5 mph - N/A   Mostly Cloudy
10:53 AM 81.0 °F 83.8 °F 68.0 °F 65% 30.03 in 10.0 mi East 8.1 mph - N/A   Mostly Cloudy
11:53 AM 84.9 °F 90.1 °F 71.1 °F 63% 30.02 in 10.0 mi ENE 6.9 mph - N/A   Mostly Cloudy
12:53 PM 82.9 °F 88.0 °F 72.0 °F 69% 30.01 in 10.0 mi ENE 6.9 mph - N/A   Mostly Cloudy
1:53 PM 82.9 °F 87.0 °F 70.0 °F 65% 29.99 in 10.0 mi NE 5.8 mph - N/A   Scattered Clouds
2:53 PM 80.1 °F 83.8 °F 72.0 °F 76% 29.99 in 8.0 mi NE 10.4 mph - 0.04 in Rain Light Rain
3:53 PM 82.9 °F 87.0 °F 70.0 °F 65% 29.97 in 10.0 mi ENE 9.2 mph - 0.10 in   Mostly Cloudy
4:53 PM 84.9 °F 89.4 °F 70.0 °F 61% 29.95 in 10.0 mi ENE 6.9 mph - N/A   Mostly Cloudy
5:53 PM 84.0 °F 88.4 °F 70.0 °F 63% 29.94 in 10.0 mi ENE 10.4 mph - N/A   Mostly Cloudy
6:53 PM 84.0 °F 87.8 °F 69.1 °F 61% 29.94 in 10.0 mi ENE 8.1 mph - N/A   Mostly Cloudy
7:53 PM 82.0 °F 84.5 °F 66.9 °F 60% 29.95 in 10.0 mi ESE 5.8 mph - N/A   Mostly Cloudy
8:53 PM 81.0 °F 83.8 °F 68.0 °F 65% 29.96 in 10.0 mi East 5.8 mph - N/A   Scattered Clouds
9:53 PM 81.0 °F 84.9 °F 71.1 °F 72% 29.97 in 10.0 mi ENE 3.5 mph - N/A   Scattered Clouds
10:53 PM 80.1 °F 83.6 °F 71.1 °F 74% 29.97 in 10.0 mi ENE 4.6 mph - N/A   Scattered Clouds
11:53 PM 80.1 °F 84.2 °F 73.0 °F 79% 29.97 in 10.0 mi East 3.5 mph - N/A   Scattered Clouds